Location: *
(41.0833°N, 73.4167°W)
Time: 03:37:49
(UTC+00:00)

Cosmos 2237 Rocket - Pass Details

Date: 22 October 2019
Orbit: 833 x 851 km, 71.0° (Epoch: 21 November)

Event Time Altitude Azimuth Distance (km) Brightness Sun altitude
Exits shadow 09:21:22 37° 305° (NW) 1,295 2.8 -21.7°
Drops below altitude 10° 09:26:30 10° 9° (N) 2,484 4.8 -20.7°
Sets 09:29:10 0° 18° (NNE) 3,425 5.6 -20.2°
